Hourly Weather Holubivs'ke

Today, 12 April, Monday

Time Temperature Precipitation Wind Pressure Humidity
00:00 +10°C° 0 mm 4 mps 758 mmHg 85%
01:00 +8°C° 0 mm 4 mps 758 mmHg 88%
02:00 +9°C° 0 mm 3 mps 757 mmHg 91%
03:00 +8°C° 0 mm 3 mps 757 mmHg 94%
04:00 +8°C° 0 mm 3 mps 757 mmHg 94%
05:00 +8°C° 0 mm 3 mps 757 mmHg 95%
06:00 +8°C° 0 mm 3 mps 757 mmHg 95%
07:00 +10°C° 0 mm 3 mps 757 mmHg 86%
08:00 +11°C° 0 mm 3 mps 757 mmHg 78%
09:00 +13°C° 0 mm 4 mps 757 mmHg 69%
10:00 +15°C° 0 mm 4 mps 756 mmHg 60%
11:00 +17°C° 0 mm 5 mps 756 mmHg 52%
12:00 +20°C° 0 mm 6 mps 756 mmHg 43%
13:00 +20°C° 0 mm 6 mps 756 mmHg 42%
14:00 +21°C° 0 mm 6 mps 756 mmHg 41%
15:00 +21°C° 0 mm 7 mps 756 mmHg 40%
16:00 +20°C° 0 mm 6 mps 757 mmHg 45%
17:00 +19°C° 0 mm 5 mps 757 mmHg 49%
18:00 +17°C° 0 mm 5 mps 757 mmHg 53%
19:00 +17°C° 0 mm 4 mps 757 mmHg 59%
20:00 +16°C° 0 mm 3 mps 758 mmHg 65%
21:00 +15°C° 0 mm 2 mps 758 mmHg 71%
22:00 +14°C° 0 mm 2 mps 758 mmHg 75%
23:00 +14°C° 0 mm 2 mps 758 mmHg 79%

Tomorrow, 13 April, Tuesday

Time Temperature Precipitation Wind Pressure Humidity
00:00 +13°C° 0 mm 2 mps 758 mmHg 82%
01:00 +13°C° 0 mm 2 mps 758 mmHg 83%
02:00 +13°C° 0 mm 2 mps 758 mmHg 84%
03:00 +13°C° 0 mm 1 mps 758 mmHg 85%
04:00 +12°C° 0 mm 1 mps 758 mmHg 86%
05:00 +12°C° 0 mm 1 mps 758 mmHg 87%
06:00 +12°C° 0 mm 1 mps 758 mmHg 88%
07:00 +12°C° 0 mm 2 mps 758 mmHg 84%
08:00 +13°C° 0 mm 2 mps 758 mmHg 79%
09:00 +13°C° 0 mm 3 mps 758 mmHg 75%
10:00 +13°C° 0 mm 3 mps 758 mmHg 71%
11:00 +14°C° 0 mm 4 mps 758 mmHg 67%
12:00 +14°C° 0 mm 5 mps 758 mmHg 63%
13:00 +15°C° 0 mm 4 mps 758 mmHg 65%
14:00 +15°C° 0 mm 4 mps 758 mmHg 66%
15:00 +15°C° 0 mm 4 mps 758 mmHg 67%
16:00 +15°C° 0 mm 4 mps 758 mmHg 70%
17:00 +14°C° 0 mm 3 mps 758 mmHg 73%
18:00 +14°C° 0 mm 3 mps 758 mmHg 76%
19:00 +13°C° 0 mm 3 mps 758 mmHg 79%
20:00 +13°C° 0 mm 2 mps 758 mmHg 82%
21:00 +12°C° 0 mm 1 mps 758 mmHg 85%
22:00 +12°C° 0 mm 1 mps 758 mmHg 85%
23:00 +12°C° 0 mm 1 mps 757 mmHg 86%

Day after tomorrow, 14 April, Wednesday

Time Temperature Precipitation Wind Pressure Humidity
00:00 +10°C° 0 mm 0 mps 757 mmHg 87%
01:00 +10°C° 0 mm 0 mps 757 mmHg 87%
02:00 +10°C° 0 mm 0 mps 757 mmHg 87%
03:00 +10°C° 0 mm 0 mps 756 mmHg 87%
04:00 +10°C° 0 mm 0 mps 756 mmHg 88%
05:00 +10°C° 0 mm 0 mps 756 mmHg 89%
06:00 +10°C° 0 mm 0 mps 756 mmHg 90%
07:00 +12°C° 0 mm 1 mps 756 mmHg 83%
08:00 +13°C° 0 mm 2 mps 756 mmHg 76%
09:00 +15°C° 0 mm 2 mps 756 mmHg 69%
10:00 +16°C° 0 mm 2 mps 756 mmHg 63%
11:00 +17°C° 0 mm 3 mps 755 mmHg 57%
12:00 +18°C° 0 mm 3 mps 755 mmHg 51%
13:00 +18°C° 0.2 mm 4 mps 755 mmHg 51%
14:00 +18°C° 0.2 mm 4 mps 755 mmHg 50%
15:00 +16°C° 0.2 mm 5 mps 755 mmHg 50%
16:00 +17°C° 0 mm 4 mps 755 mmHg 51%
17:00 +17°C° 0 mm 3 mps 754 mmHg 51%
18:00 +17°C° 0 mm 2 mps 754 mmHg 52%
19:00 +16°C° 0 mm 2 mps 754 mmHg 56%
20:00 +15°C° 0 mm 1 mps 754 mmHg 59%
21:00 +14°C° 0 mm 1 mps 754 mmHg 63%
22:00 +14°C° 0 mm 1 mps 754 mmHg 64%
23:00 +14°C° 0 mm 1 mps 754 mmHg 64%

15 April, Thursday

Time Temperature Precipitation Wind Pressure Humidity
00:00 +14°C° 0 mm 1 mps 753 mmHg 65%
01:00 +14°C° 0 mm 1 mps 753 mmHg 66%
02:00 +13°C° 0 mm 1 mps 753 mmHg 66%
03:00 +13°C° 0 mm 1 mps 753 mmHg 67%
04:00 +13°C° 0 mm 1 mps 753 mmHg 67%
05:00 +13°C° 0 mm 1 mps 753 mmHg 68%
06:00 +12°C° 0 mm 1 mps 753 mmHg 69%
07:00 +14°C° 0 mm 1 mps 753 mmHg 64%
08:00 +15°C° 0 mm 1 mps 753 mmHg 59%
09:00 +16°C° 0 mm 1 mps 753 mmHg 54%
10:00 +18°C° 0 mm 1 mps 753 mmHg 51%
11:00 +18°C° 0 mm 2 mps 752 mmHg 47%
12:00 +19°C° 0 mm 2 mps 752 mmHg 44%
13:00 +19°C° 0 mm 3 mps 752 mmHg 44%
14:00 +19°C° 0 mm 3 mps 752 mmHg 44%
15:00 +19°C° 0 mm 3 mps 752 mmHg 44%
16:00 +18°C° 0 mm 3 mps 752 mmHg 47%
17:00 +18°C° 0 mm 3 mps 751 mmHg 50%
18:00 +17°C° 0 mm 3 mps 751 mmHg 53%
19:00 +16°C° 0 mm 3 mps 751 mmHg 57%
20:00 +14°C° 0 mm 3 mps 752 mmHg 60%
21:00 +14°C° 0 mm 3 mps 752 mmHg 63%
22:00 +14°C° 0 mm 2 mps 752 mmHg 68%
23:00 +13°C° 0 mm 2 mps 752 mmHg 73%

16 April, Friday

Time Temperature Precipitation Wind Pressure Humidity
00:00 +12°C° 0 mm 2 mps 752 mmHg 79%
01:00 +10°C° 0 mm 2 mps 752 mmHg 81%
02:00 +10°C° 0 mm 2 mps 752 mmHg 82%
03:00 +9°C° 0 mm 2 mps 752 mmHg 84%
04:00 +9°C° 0 mm 2 mps 752 mmHg 85%
05:00 +9°C° 0 mm 2 mps 752 mmHg 86%
06:00 +8°C° 0 mm 2 mps 752 mmHg 87%
07:00 +9°C° 0 mm 3 mps 752 mmHg 84%
08:00 +10°C° 0 mm 4 mps 752 mmHg 80%
09:00 +11°C° 0 mm 4 mps 752 mmHg 77%
10:00 +12°C° 0.1 mm 5 mps 753 mmHg 69%
11:00 +13°C° 0.1 mm 5 mps 753 mmHg 61%
12:00 +14°C° 0.1 mm 5 mps 753 mmHg 53%
13:00 +14°C° 0 mm 6 mps 753 mmHg 54%
14:00 +13°C° 0 mm 6 mps 753 mmHg 54%
15:00 +13°C° 0 mm 6 mps 753 mmHg 55%
16:00 +13°C° 0.1 mm 5 mps 753 mmHg 59%
17:00 +12°C° 0.1 mm 5 mps 753 mmHg 63%
18:00 +12°C° 0.1 mm 5 mps 753 mmHg 67%
19:00 +11°C° 0 mm 4 mps 754 mmHg 70%
20:00 +10°C° 0 mm 3 mps 754 mmHg 74%
21:00 +10°C° 0 mm 2 mps 754 mmHg 78%
22:00 +9°C° 0 mm 2 mps 754 mmHg 79%
23:00 +8°C° 0 mm 2 mps 754 mmHg 81%

17 April, Saturday

Time Temperature Precipitation Wind Pressure Humidity
00:00 +8°C° 0 mm 2 mps 754 mmHg 82%
01:00 +7°C° 0 mm 3 mps 754 mmHg 82%
02:00 +7°C° 0 mm 3 mps 755 mmHg 82%
03:00 +7°C° 0 mm 3 mps 755 mmHg 83%
04:00 +6°C° 0 mm 2 mps 755 mmHg 83%
05:00 +6°C° 0 mm 2 mps 755 mmHg 83%
06:00 +5°C° 0 mm 2 mps 756 mmHg 84%
07:00 +7°C° 0 mm 3 mps 756 mmHg 76%
08:00 +8°C° 0 mm 3 mps 756 mmHg 68%
09:00 +9°C° 0 mm 3 mps 757 mmHg 60%
10:00 +10°C° 0 mm 4 mps 757 mmHg 57%
11:00 +10°C° 0 mm 4 mps 757 mmHg 54%
12:00 +11°C° 0 mm 4 mps 757 mmHg 52%
13:00 +11°C° 0 mm 4 mps 757 mmHg 51%
14:00 +11°C° 0 mm 3 mps 757 mmHg 51%
15:00 +12°C° 0 mm 3 mps 758 mmHg 50%
16:00 +12°C° 0 mm 3 mps 758 mmHg 51%
17:00 +12°C° 0 mm 3 mps 758 mmHg 52%
18:00 +13°C° 0 mm 2 mps 758 mmHg 52%
19:00 +12°C° 0 mm 2 mps 758 mmHg 58%
20:00 +9°C° 0 mm 2 mps 758 mmHg 63%
21:00 +8°C° 0 mm 2 mps 759 mmHg 69%
22:00 +8°C° 0 mm 2 mps 759 mmHg 71%
23:00 +7°C° 0 mm 2 mps 759 mmHg 73%
Show more